CZ-3B DEB, 38748

Orbit data source: Space-Track

CZ-3B DEB, 38748 is space debris in HEO originally from a launch on Sat, 04 Sep 2010 UTC launched from the Xichang Space Center, China (XSC). Debris objects in space refer to the collection of defunct objects orbiting the Earth. Examples of debris include non-operational satellites, rocket bodies, and fragments generated from explosions, collisions, or faulty payload assembly.

Loading next visibility...
CZ-3B DEB details
Identifier
38748, 2010-042C
Orbit
HEO
Last TLE update7 months ago
Origin
Flag of CNCASC (CN / PRC)
ManufacturerCALT
MissionSpacecraft
Bus & MotorUnknown
MassUnknown
Launch date (UTC)
2010-09-04 (14 years ago)
Launch vehicleUnknown
Launch site
Xichang Space Center, China (XSC)
Object type
Payload
Rocket body
Debris
Shape & HBRUnknown
Radar Cross SectionMedium (>0.1 m² and <1 m²)

Expand to show TLE details & history

TLE from 7 months ago
0 CZ-3B DEB
1 38748U 10042C   24168.06014989  .00002786  00000-0  66677-2 0  9992
2 38748  24.1882 332.1271 7267159 224.8517  46.4547  2.22791523 97483
Epoch: 2024-06-16T01:26Z
Definitive object data (Epoch: 2024-06-16T01:26:36.95Z)
Latitude-0.00025°
Longitude45.63191°
Altitude17,716.415 km
Speed4.122 km/s
True Right ascension22h 08m 24s
True Declination0° 00' 01"
Sunlit
Object was in daylight at TLE epoch
Visualization TLE readout
Latitude8.25891°
Longitude126.74778°
Altitude28,683.457 km
Speed2.565 km/s
Apparent Right ascension03h 27m 21s
Apparent Declination1° 23' 28"
Sunlit
Object is in daylight
Visualization observer readout
Local Sidereal Time14:48:06
Azimuth345.329° N
Elevation-47.729°
Doppler factor1
Orbital elements
Apogee altitude36,387.592 km
Perigee altitude390.315 km
Semi-major axis24,767.091 km
Eccentricity0.7267159
Inclination24.1882°
RAAN332.1271°
Arg. of periapsis224.8517°
True anomaly135.26865°
Mean anomaly46.4547°
Eccentric anomaly88.0688°
Mean motion0.55684 °/min
BSTAR0.0066677
Orbital period646.5 mins
Loading maneuver chart data...
Loading historical data...
Loading historical data...
Loading historical data...
Loading historical data...
Loading historical data...
Loading historical data...
Loading historical data...

CZ-3B DEB Visibility forecast

Observer location: undefined°, undefined

Span
Click to sort rows by Start time (UTC) header in descending order
Start Az.
Max El. time (UTC)
Max El. Az.
Max El.
End time (UTC)
End Az.
570 mins2025-01-24 21:45:04.583Z244.859° WSW2025-01-24 22:02:04.583Z170.454° S40.409°2025-01-25 07:15:04.583Z178.058° S
|